Cloud_Cover
100 100 100 100 100 100 100 100 100 100 100 100 100 100 100 100 100 100 100 99 100 99 100 100 100 100 100 100 100 100 100 100 100 97 90 100 100 100 100 100 100 100 74
100 100 100 100 100 100 100 100 100 100 100 100 100 100 100 100 100 100 100 100 100 97 100 100 100 100 100 100 100 100 100 100 98 100 100 100 100 100 100 100 71 88 94
100 100 100 100 100 100 100 100 100 100 100 100 100 100 100 100 100 100 100 100 100 100 100 100 100 100 100 100 100 100 100 100 100 100 100 100 100 100 100 100 100 100 89
100 100 100 100 100 100 100 100 100 100 100 100 100 100 100 100 100 100 100 100 100 100 100 100 100 100 100 100 100 94 100 86 87 98 100 82 99 100 100 42 4 2 4
100 100 100 100 100 100 100 98 100 100 100 100 100 100 100 100 100 100 100 100 100 100 100 100 100 100 100 100 100 100 100 100 100 97 74 100 10 28 5 5 5 5 4
100 100 100 100 100 100 100 99 99 93 98 100 100 78 100 100 100 100 100 100 100 100 100 100 100 100 100 100 100 98 99 100 99 25 5 26 14 10 7 5 5 5 5
100 100 100 100 100 100 100 96 97 100 91 100 46 100 87 100 100 100 100 100 100 100 100 100 100 100 100 100 100 100 100 100 51 13 5 5 5 5 21 5 5 36 100
100 100 100 100 100 100 100 100 100 99 91 95 86 91 82 73 100 94 100 100 100 100 100 100 100 96 77 84 100 98 95 97 75 9 5 5 4 5 56 20 80 6 100
100 100 100 100 100 100 100 100 88 100 98 58 23 31 16 100 100 100 97 100 97 100 100 100 58 100 98 100 100 97 100 63 43 5 5 5 5 5 100 100 100 100 76
100 100 100 100 100 100 100 100 100 100 100 53 69 71 53 91 77 100 100 100 100 94 96 96 98 100 100 100 100 100 100 88 82 15 5 5 22 100 100 100 100 100 100
100 100 100 100 100 100 100 100 100 100 100 99 96 77 99 100 95 89 95 100 100 100 100 100 100 100 100 100 100 100 100 73 100 70 89 100 100 100 100 100 100 100 100
100 100 100 100 100 100 100 100 100 100 100 100 100 97 100 100 100 95 94 100 100 100 100 100 100 100 100 100 100 100 100 100 76 100 100 100 100 100 100 100 100 100 100
100 100 100 100 100 100 100 100 100 100 99 100 100 99 100 100 98 100 100 100 96 100 100 100 100 100 100 100 100 100 100 94 100 100 100 100 100 100 100 100 100 100 100
100 100 100 100 100 100 100 100 100 100 100 100 100 100 100 100 100 100 96 100 100 100 100 100 100 100 100 100 100 100 100 100 100 100 100 100 100 100 100 100 100 100 100
100 100 100 100 100 100 100 100 100 100 100 100 100 100 100 100 100 100 100 100 100 100 100 100 100 100 100 100 100 100 100 100 100 100 100 100 100 100 100 100 100 100 100
100 100 100 100 100 100 100 100 100 100 100 100 100 100 100 100 100 100 91 100 100 100 100 100 100 100 100 100 100 100 96 98 100 100 100 100 100 100 100 100 100 100 100
100 100 100 100 100 100 100 100 100 100 100 100 100 100 100 100 100 100 100 100 100 100 100 100 100 100 100 100 100 100 100 100 100 100 100 100 100 100 100 100 100 100 100
100 100 100 100 100 100 100 100 100 100 100 100 100 100 100 100 95 86 100 100 100 100 100 100 100 100 100 100 100 100 100 100 100 100 100 100 100 100 100 100 100 100 100
100 100 100 100 100 100 100 100 100 100 100 100 100 100 100 100 100 100 100 100 100 100 100 100 100 100 100 100 100 100 100 100 100 100 100 100 100 100 100 100 100 100 100
100 100 100 100 100 100 100 100 100 100 100 100 100 100 100 100 100 100 100 100 100 100 100 100 100 100 100 100 100 100 100 100 100 100 100 100 100 100 100 100 100 100 85
100 100 100 100 100 100 100 100 100 100 100 100 100 100 100 100 100 100 100 100 100 100 100 100 100 100 100 100 100 100 100 86 80 100 100 100 100 100 100 100 100 100 100
100 100 100 100 100 100 100 100 100 100 100 100 100 100 100 100 100 100 100 100 100 100 100 100 100 100 99 100 100 79 34 53 71 98 100 100 100 100 100 100 99 100 99
100 100 100 100 100 100 100 100 100 100 100 100 100 100 100 100 100 100 100 100 100 100 100 75 5 100 96 99 61 36 28 94 23 93 100 99 100 94 100 100 100 100 100
99 100 100 100 100 100 100 100 100 100 100 100 100 100 100 100 100 100 100 99 18 5 5 5 5 5 3 5 4 5 5 25 39 49 100 100 97 99 100 98 100 100 100
100 96 81 86 73 93 98 71 63 19 3 5 1 5 5 4 4 5 5 5 26 34 6 5 5 5 5 5 5 5 25 5 28 20 34 54 84 90 87 53 94 100 100
5 24 3 45 98 100 93 5 5 18 5 5 5 5 5 4 4 4 5 5 24 43 6 14 30 15 5 5 5 5 5 6 80 5 5 5 18 25 30 79 86 100 100